Time,TemperatureF,DewpointF,PressureIn,WindDirection,WindDirectionDegrees,WindSpeedMPH,WindSpeedGustMPH,Humidity,HourlyPrecipIn,Conditions,Clouds,dailyrainin,SolarRadiationWatts/m^2,SoftwareType,DateUTC
2013-05-17 00:00:00,62.3,59.0,30.00,SW,219,0.0,0.0,89,0.00,,,0.00,0,Wunderground v.1.15,2013-05-17 04:00:00,
2013-05-17 00:05:00,62.3,59.0,30.00,SW,219,0.0,0.0,89,0.00,,,0.00,0,Wunderground v.1.15,2013-05-17 04:05:00,
2013-05-17 00:10:00,62.2,59.2,30.00,SW,219,0.0,0.0,90,0.00,,,0.00,0,Wunderground v.1.15,2013-05-17 04:10:00,
2013-05-17 00:15:00,62.2,59.2,30.00,SW,219,0.0,0.0,90,0.00,,,0.00,0,Wunderground v.1.15,2013-05-17 04:15:00,
2013-05-17 00:20:00,62.2,59.2,30.00,SW,219,0.0,0.0,90,0.00,,,0.00,0,Wunderground v.1.15,2013-05-17 04:20:00,
2013-05-17 00:25:00,62.0,59.0,30.00,SW,219,0.0,0.0,90,0.00,,,0.00,0,Wunderground v.1.15,2013-05-17 04:25:00,
2013-05-17 00:35:00,61.8,58.8,30.00,SW,219,0.0,0.0,90,0.00,,,0.00,0,Wunderground v.1.15,2013-05-17 04:35:00,
2013-05-17 00:40:00,61.7,58.7,30.00,SW,219,0.0,0.0,90,0.00,,,0.00,0,Wunderground v.1.15,2013-05-17 04:40:00,
2013-05-17 00:45:00,61.6,58.6,30.00,SW,219,0.0,0.0,90,0.00,,,0.00,0,Wunderground v.1.15,2013-05-17 04:45:00,
2013-05-17 00:50:00,61.5,58.5,30.00,SW,219,0.0,0.0,90,0.00,,,0.00,0,Wunderground v.1.15,2013-05-17 04:50:00,
2013-05-17 01:00:00,61.1,57.8,30.00,SW,219,0.0,0.0,89,0.00,,,0.00,0,Wunderground v.1.15,2013-05-17 05:00:00,
2013-05-17 01:05:00,60.8,57.5,30.00,SW,219,0.0,0.0,89,0.00,,,0.00,0,Wunderground v.1.15,2013-05-17 05:05:00,
2013-05-17 01:15:00,60.5,57.6,30.00,SW,219,0.0,0.0,90,0.00,,,0.00,0,Wunderground v.1.15,2013-05-17 05:15:00,
2013-05-17 01:20:00,60.4,57.5,30.00,SW,219,0.0,0.0,90,0.00,,,0.00,0,Wunderground v.1.15,2013-05-17 05:20:00,
2013-05-17 01:25:00,60.4,57.5,30.00,SW,219,0.0,0.0,90,0.00,,,0.00,0,Wunderground v.1.15,2013-05-17 05:25:00,
2013-05-17 01:35:00,60.4,57.8,30.00,SW,219,0.0,0.0,91,0.00,,,0.00,0,Wunderground v.1.15,2013-05-17 05:35:00,
2013-05-17 01:40:00,60.4,57.8,30.00,SW,219,0.0,0.0,91,0.00,,,0.00,0,Wunderground v.1.15,2013-05-17 05:40:00,
2013-05-17 01:45:00,60.3,57.7,30.00,SW,219,0.0,0.0,91,0.00,,,0.00,0,Wunderground v.1.15,2013-05-17 05:45:00,
2013-05-17 01:50:00,60.2,57.6,30.00,SW,219,0.0,0.0,91,0.00,,,0.00,0,Wunderground v.1.15,2013-05-17 05:50:00,
2013-05-17 01:55:00,60.1,57.5,30.00,SW,219,0.0,0.0,91,0.00,,,0.00,0,Wunderground v.1.15,2013-05-17 05:55:00,
2013-05-17 02:00:00,60.2,57.6,30.00,SW,219,0.0,0.0,91,0.00,,,0.00,0,Wunderground v.1.15,2013-05-17 06:00:00,
2013-05-17 02:05:00,60.2,57.9,30.00,SW,219,0.0,0.0,92,0.00,,,0.00,0,Wunderground v.1.15,2013-05-17 06:05:00,
2013-05-17 02:15:00,60.2,57.6,30.00,SW,219,0.0,0.0,91,0.00,,,0.00,0,Wunderground v.1.15,2013-05-17 06:15:00,
2013-05-17 02:20:00,60.2,57.9,30.00,SW,219,0.0,0.0,92,0.00,,,0.00,0,Wunderground v.1.15,2013-05-17 06:20:00,
2013-05-17 02:25:00,60.2,57.9,30.00,SW,219,0.0,0.0,92,0.00,,,0.00,0,Wunderground v.1.15,2013-05-17 06:25:00,
2013-05-17 02:30:00,60.3,58.0,30.00,SW,219,0.0,0.0,92,0.00,,,0.00,0,Wunderground v.1.15,2013-05-17 06:30:00,
2013-05-17 02:35:00,60.4,58.1,29.99,SW,219,0.0,0.0,92,0.00,,,0.00,0,Wunderground v.1.15,2013-05-17 06:35:00,
2013-05-17 02:40:00,60.4,58.1,29.99,SW,219,0.0,0.0,92,0.00,,,0.00,0,Wunderground v.1.15,2013-05-17 06:40:00,
2013-05-17 02:50:00,60.0,57.4,29.99,SW,219,0.0,0.0,91,0.00,,,0.00,0,Wunderground v.1.15,2013-05-17 06:50:00,
2013-05-17 02:55:00,59.8,57.2,29.99,SW,219,0.0,0.0,91,0.00,,,0.00,0,Wunderground v.1.15,2013-05-17 06:55:00,
2013-05-17 03:00:00,59.7,57.1,30.00,SW,219,0.0,0.0,91,0.00,,,0.00,0,Wunderground v.1.15,2013-05-17 07:00:00,
2013-05-17 03:05:00,59.6,57.0,29.99,SW,219,0.0,0.0,91,0.00,,,0.00,0,Wunderground v.1.15,2013-05-17 07:05:00,
2013-05-17 03:15:00,59.6,57.3,29.99,SW,219,0.0,0.0,92,0.00,,,0.00,0,Wunderground v.1.15,2013-05-17 07:15:00,
2013-05-17 03:25:00,59.7,57.7,29.99,SW,219,0.0,0.0,93,0.00,,,0.00,0,Wunderground v.1.15,2013-05-17 07:25:00,
2013-05-17 03:30:00,59.7,57.4,29.99,SW,219,0.0,0.0,92,0.00,,,0.00,0,Wunderground v.1.15,2013-05-17 07:30:00,
2013-05-17 03:35:00,59.6,57.3,29.99,SW,219,0.0,0.0,92,0.00,,,0.00,0,Wunderground v.1.15,2013-05-17 07:35:00,
2013-05-17 03:40:00,59.5,57.2,29.99,SW,219,0.0,0.0,92,0.00,,,0.00,0,Wunderground v.1.15,2013-05-17 07:40:00,
2013-05-17 03:45:00,59.5,57.2,30.00,SW,219,0.0,0.0,92,0.00,,,0.00,0,Wunderground v.1.15,2013-05-17 07:45:00,
2013-05-17 03:50:00,59.4,57.1,30.00,SW,219,0.0,0.0,92,0.00,,,0.00,0,Wunderground v.1.15,2013-05-17 07:50:00,
2013-05-17 04:00:00,59.1,56.8,30.00,SW,219,0.0,0.0,92,0.00,,,0.00,0,Wunderground v.1.15,2013-05-17 08:00:00,
2013-05-17 04:05:00,59.0,56.7,30.00,SW,219,0.0,0.0,92,0.00,,,0.00,0,Wunderground v.1.15,2013-05-17 08:05:00,
2013-05-17 04:15:00,59.1,57.1,30.00,SW,219,0.0,0.0,93,0.00,,,0.00,0,Wunderground v.1.15,2013-05-17 08:15:00,
2013-05-17 04:20:00,59.1,57.1,30.00,SW,219,0.0,0.0,93,0.00,,,0.00,0,Wunderground v.1.15,2013-05-17 08:20:00,
2013-05-17 04:30:00,59.0,56.7,30.00,SW,219,0.0,0.0,92,0.00,,,0.00,0,Wunderground v.1.15,2013-05-17 08:30:00,
2013-05-17 04:35:00,59.0,57.0,30.00,SW,219,0.0,0.0,93,0.00,,,0.00,0,Wunderground v.1.15,2013-05-17 08:35:00,
2013-05-17 04:40:00,59.0,57.0,30.00,SW,219,0.0,0.0,93,0.00,,,0.00,0,Wunderground v.1.15,2013-05-17 08:40:00,
2013-05-17 04:45:00,59.0,57.0,30.01,SW,219,0.0,0.0,93,0.00,,,0.00,0,Wunderground v.1.15,2013-05-17 08:45:00,
2013-05-17 04:50:00,59.0,57.0,30.01,SW,219,0.0,0.0,93,0.00,,,0.00,0,Wunderground v.1.15,2013-05-17 08:50:00,
2013-05-17 04:55:00,59.0,57.0,30.01,SW,219,0.0,0.0,93,0.00,,,0.00,0,Wunderground v.1.15,2013-05-17 08:55:00,
2013-05-17 05:00:00,59.0,57.0,30.01,SW,219,0.0,0.0,93,0.00,,,0.00,0,Wunderground v.1.15,2013-05-17 09:00:00,
2013-05-17 05:10:00,59.0,57.0,30.01,SW,219,0.0,0.0,93,0.00,,,0.00,0,Wunderground v.1.15,2013-05-17 09:10:00,
2013-05-17 05:15:00,59.0,57.0,30.01,SW,219,0.0,0.0,93,0.00,,,0.00,0,Wunderground v.1.15,2013-05-17 09:15:00,
2013-05-17 05:20:00,58.9,56.9,30.01,SW,219,0.0,0.0,93,0.00,,,0.00,0,Wunderground v.1.15,2013-05-17 09:20:00,
2013-05-17 05:25:00,58.7,56.7,30.01,SW,219,0.0,0.0,93,0.00,,,0.00,0,Wunderground v.1.15,2013-05-17 09:25:00,
2013-05-17 05:30:00,58.6,56.6,30.02,SW,219,0.0,0.0,93,0.00,,,0.00,0,Wunderground v.1.15,2013-05-17 09:30:00,
2013-05-17 05:35:00,58.6,56.6,30.01,SW,219,0.0,0.0,93,0.00,,,0.00,0,Wunderground v.1.15,2013-05-17 09:35:00,
2013-05-17 05:45:00,58.2,56.2,30.02,SW,219,0.0,0.0,93,0.00,,,0.00,0,Wunderground v.1.15,2013-05-17 09:45:00,
2013-05-17 05:50:00,58.0,56.0,30.02,SW,219,0.0,0.0,93,0.00,,,0.00,0,Wunderground v.1.15,2013-05-17 09:50:00,
2013-05-17 05:55:00,57.9,55.9,30.02,SW,219,0.0,0.0,93,0.00,,,0.00,0,Wunderground v.1.15,2013-05-17 09:55:00,
2013-05-17 06:00:00,57.8,55.8,30.02,SW,219,0.0,0.0,93,0.00,,,0.00,0,Wunderground v.1.15,2013-05-17 10:00:00,
2013-05-17 06:05:00,57.7,55.7,30.02,SW,219,0.0,0.0,93,0.00,,,0.00,0,Wunderground v.1.15,2013-05-17 10:05:00,
2013-05-17 06:15:00,57.5,55.5,30.02,SW,219,0.0,0.0,93,0.00,,,0.00,0,Wunderground v.1.15,2013-05-17 10:15:00,
2013-05-17 06:20:00,57.4,55.4,30.02,SW,219,0.0,0.0,93,0.00,,,0.00,0,Wunderground v.1.15,2013-05-17 10:20:00,
2013-05-17 06:25:00,57.2,55.2,30.03,SW,219,0.0,0.0,93,0.00,,,0.00,0,Wunderground v.1.15,2013-05-17 10:25:00,
2013-05-17 06:30:00,56.9,54.9,30.03,SW,219,0.0,0.0,93,0.00,,,0.00,0,Wunderground v.1.15,2013-05-17 10:30:00,
2013-05-17 06:35:00,56.7,54.7,30.03,SW,219,0.0,0.0,93,0.00,,,0.00,0,Wunderground v.1.15,2013-05-17 10:35:00,
2013-05-17 06:40:00,56.7,54.7,30.03,SW,219,0.0,0.0,93,0.00,,,0.00,0,Wunderground v.1.15,2013-05-17 10:40:00,
2013-05-17 06:45:00,56.6,54.6,30.03,SW,219,0.0,0.0,93,0.00,,,0.00,0,Wunderground v.1.15,2013-05-17 10:45:00,
2013-05-17 06:55:00,56.6,54.6,30.03,SW,219,0.0,0.0,93,0.00,,,0.00,9,Wunderground v.1.15,2013-05-17 10:55:00,
2013-05-17 07:00:00,56.5,54.5,30.04,SW,219,0.0,0.0,93,0.00,,,0.00,9,Wunderground v.1.15,2013-05-17 11:00:00,
2013-05-17 07:05:00,56.5,54.5,30.04,SW,219,0.0,0.0,93,0.00,,,0.00,11,Wunderground v.1.15,2013-05-17 11:05:00,
2013-05-17 07:15:00,56.5,54.5,30.04,SW,219,0.0,0.0,93,0.00,,,0.00,14,Wunderground v.1.15,2013-05-17 11:15:00,
2013-05-17 07:20:00,56.6,54.9,30.04,SW,219,0.0,0.0,94,0.00,,,0.00,18,Wunderground v.1.15,2013-05-17 11:20:00,
2013-05-17 07:30:00,56.5,54.5,30.04,SW,219,0.0,0.0,93,0.00,,,0.00,39,Wunderground v.1.15,2013-05-17 11:30:00,
2013-05-17 07:35:00,56.7,55.0,30.04,SW,219,0.0,0.0,94,0.00,,,0.00,53,Wunderground v.1.15,2013-05-17 11:35:00,
2013-05-17 07:40:00,56.9,55.2,30.04,SW,219,0.0,0.0,94,0.00,,,0.00,116,Wunderground v.1.15,2013-05-17 11:40:00,
2013-05-17 07:45:00,57.2,55.5,30.05,SW,219,0.0,0.0,94,0.00,,,0.00,167,Wunderground v.1.15,2013-05-17 11:45:00,
2013-05-17 07:50:00,58.3,56.6,30.05,SW,219,0.0,0.0,94,0.00,,,0.00,204,Wunderground v.1.15,2013-05-17 11:50:00,
2013-05-17 07:55:00,59.0,57.3,30.05,SW,219,0.0,0.0,94,0.00,,,0.00,100,Wunderground v.1.15,2013-05-17 11:55:00,
2013-05-17 08:00:00,59.6,57.9,30.05,SW,219,0.0,0.0,94,0.00,,,0.00,199,Wunderground v.1.15,2013-05-17 12:00:00,
2013-05-17 08:10:00,60.7,58.7,30.05,SW,219,0.0,0.0,93,0.00,,,0.00,192,Wunderground v.1.15,2013-05-17 12:10:00,
2013-05-17 08:15:00,61.3,59.3,30.05,SW,219,0.0,0.0,93,0.00,,,0.00,304,Wunderground v.1.15,2013-05-17 12:15:00,
2013-05-17 08:20:00,62.0,59.6,30.05,SW,219,0.0,0.0,92,0.00,,,0.00,148,Wunderground v.1.15,2013-05-17 12:20:00,
2013-05-17 08:25:00,62.4,59.1,30.05,SW,219,0.0,0.0,89,0.00,,,0.00,91,Wunderground v.1.15,2013-05-17 12:25:00,
2013-05-17 08:30:00,62.2,58.9,30.05,SW,219,0.0,0.0,89,0.00,,,0.00,84,Wunderground v.1.15,2013-05-17 12:30:00,
2013-05-17 08:35:00,62.0,58.7,30.05,SW,219,0.0,0.0,89,0.00,,,0.00,86,Wunderground v.1.15,2013-05-17 12:35:00,
2013-05-17 08:45:00,62.1,59.1,30.05,SW,219,0.0,0.0,90,0.00,,,0.00,114,Wunderground v.1.15,2013-05-17 12:45:00,
2013-05-17 08:50:00,62.3,59.0,30.05,SW,219,0.0,0.0,89,0.00,,,0.00,128,Wunderground v.1.15,2013-05-17 12:50:00,
2013-05-17 09:00:00,62.7,59.1,30.05,SW,219,0.0,0.0,88,0.00,,,0.00,93,Wunderground v.1.15,2013-05-17 13:00:00,
2013-05-17 09:05:00,62.7,59.1,30.05,SW,219,0.0,0.0,88,0.00,,,0.00,86,Wunderground v.1.15,2013-05-17 13:05:00,
2013-05-17 09:15:00,63.2,59.9,30.05,SW,219,0.0,0.0,89,0.00,,,0.00,127,Wunderground v.1.15,2013-05-17 13:15:00,
2013-05-17 09:20:00,63.5,60.2,30.06,SW,219,0.0,0.0,89,0.00,,,0.00,142,Wunderground v.1.15,2013-05-17 13:20:00,
2013-05-17 09:25:00,63.9,60.6,30.06,SW,219,0.0,0.0,89,0.00,,,0.00,139,Wunderground v.1.15,2013-05-17 13:25:00,
2013-05-17 09:30:00,64.2,60.2,30.06,SW,219,0.0,0.0,87,0.00,,,0.00,114,Wunderground v.1.15,2013-05-17 13:30:00,
2013-05-17 09:35:00,64.6,61.0,30.06,SW,219,0.0,0.0,88,0.00,,,0.00,116,Wunderground v.1.15,2013-05-17 13:35:00,
2013-05-17 09:40:00,64.8,60.5,30.06,SW,219,0.0,0.0,86,0.00,,,0.00,137,Wunderground v.1.15,2013-05-17 13:40:00,
2013-05-17 09:45:00,65.1,61.1,30.06,SW,219,0.0,0.0,87,0.00,,,0.00,186,Wunderground v.1.15,2013-05-17 13:45:00,
2013-05-17 09:55:00,66.0,61.4,30.06,SW,219,0.0,0.0,85,0.00,,,0.00,183,Wunderground v.1.15,2013-05-17 13:55:00,
2013-05-17 10:00:00,66.5,61.8,30.06,SW,219,0.0,0.0,85,0.00,,,0.00,142,Wunderground v.1.15,2013-05-17 14:00:00,
2013-05-17 10:05:00,66.9,62.2,30.06,SW,219,0.0,0.0,85,0.00,,,0.00,123,Wunderground v.1.15,2013-05-17 14:05:00,
2013-05-17 10:15:00,67.5,62.5,30.06,SW,218,0.0,0.0,84,0.00,,,0.00,125,Wunderground v.1.15,2013-05-17 14:15:00,
2013-05-17 10:20:00,67.9,62.9,30.06,SW,218,0.0,0.0,84,0.00,,,0.00,127,Wunderground v.1.15,2013-05-17 14:20:00,
2013-05-17 10:30:00,68.4,62.3,30.06,SW,218,0.0,0.0,81,0.00,,,0.00,127,Wunderground v.1.15,2013-05-17 14:30:00,
2013-05-17 10:35:00,68.6,61.8,30.06,SW,219,0.0,0.0,79,0.00,,,0.00,127,Wunderground v.1.15,2013-05-17 14:35:00,
2013-05-17 10:40:00,68.9,62.8,30.06,SW,219,0.0,0.0,81,0.00,,,0.00,130,Wunderground v.1.15,2013-05-17 14:40:00,
2013-05-17 10:45:00,69.1,62.3,30.06,SW,219,0.0,0.0,79,0.00,,,0.00,148,Wunderground v.1.15,2013-05-17 14:45:00,
2013-05-17 10:50:00,69.3,62.5,30.06,SW,219,0.0,0.0,79,0.00,,,0.00,162,Wunderground v.1.15,2013-05-17 14:50:00,
2013-05-17 10:55:00,69.4,62.6,30.06,SW,219,0.0,1.0,79,0.00,,,0.00,165,Wunderground v.1.15,2013-05-17 14:55:00,
2013-05-17 12:50:00,74.7,64.7,30.04,SE,126,0.0,0.0,71,0.00,,,0.00,603,Wunderground v.1.15,2013-05-17 16:50:00,
2013-05-17 12:55:00,75.3,66.8,30.04,ESE,123,0.0,0.0,75,0.00,,,0.00,970,Wunderground v.1.15,2013-05-17 16:55:00,
2013-05-17 13:00:00,76.0,65.1,30.04,South,182,0.0,0.0,69,0.00,,,0.00,420,Wunderground v.1.15,2013-05-17 17:00:00,
2013-05-17 13:05:00,76.0,65.5,30.03,South,182,0.0,0.0,70,0.00,,,0.00,204,Wunderground v.1.15,2013-05-17 17:05:00,
2013-05-17 13:15:00,75.7,63.1,30.03,South,176,0.0,2.0,65,0.00,,,0.00,541,Wunderground v.1.15,2013-05-17 17:15:00,
2013-05-17 13:20:00,75.9,64.6,30.03,SW,232,0.0,0.0,68,0.00,,,0.00,803,Wunderground v.1.15,2013-05-17 17:20:00,
2013-05-17 13:25:00,76.1,63.5,30.03,SW,229,0.0,0.0,65,0.00,,,0.00,169,Wunderground v.1.15,2013-05-17 17:25:00,
2013-05-17 13:30:00,76.0,63.8,30.03,SW,229,0.0,0.0,66,0.00,,,0.00,97,Wunderground v.1.15,2013-05-17 17:30:00,
2013-05-17 13:35:00,75.3,63.6,30.03,SW,228,0.0,1.0,67,0.00,,,0.00,102,Wunderground v.1.15,2013-05-17 17:35:00,
2013-05-17 13:40:00,74.8,63.9,30.03,SW,228,0.0,1.0,69,0.00,,,0.00,659,Wunderground v.1.15,2013-05-17 17:40:00,
2013-05-17 13:45:00,75.1,63.8,30.03,SW,227,0.0,1.0,68,0.00,,,0.00,668,Wunderground v.1.15,2013-05-17 17:45:00,
2013-05-17 13:50:00,75.3,63.6,30.02,SW,227,0.0,0.0,67,0.00,,,0.00,334,Wunderground v.1.15,2013-05-17 17:50:00,
2013-05-17 14:00:00,75.0,63.3,30.02,SW,222,0.0,0.0,67,0.00,,,0.00,69,Wunderground v.1.15,2013-05-17 18:00:00,
2013-05-17 14:05:00,74.4,63.1,30.02,East,98,0.0,1.0,68,0.00,,,0.00,67,Wunderground v.1.15,2013-05-17 18:05:00,
2013-05-17 14:15:00,74.2,63.8,30.02,East,98,0.0,0.0,70,0.00,,,0.00,503,Wunderground v.1.15,2013-05-17 18:15:00,
2013-05-17 14:20:00,74.9,64.0,30.02,WSW,237,0.0,0.0,69,0.00,,,0.00,464,Wunderground v.1.15,2013-05-17 18:20:00,
2013-05-17 14:25:00,75.3,64.4,30.02,SW,227,0.0,0.0,69,0.00,,,0.00,243,Wunderground v.1.15,2013-05-17 18:25:00,
2013-05-17 14:35:00,75.8,64.5,30.02,South,191,0.0,2.0,68,0.00,,,0.00,301,Wunderground v.1.15,2013-05-17 18:35:00,
2013-05-17 14:40:00,75.8,63.2,30.01,South,188,0.0,0.0,65,0.00,,,0.00,320,Wunderground v.1.15,2013-05-17 18:40:00,
2013-05-17 14:45:00,75.9,63.3,30.01,South,188,0.0,0.0,65,0.00,,,0.00,200,Wunderground v.1.15,2013-05-17 18:45:00,
2013-05-17 14:50:00,76.0,63.4,30.01,South,188,0.0,0.0,65,0.00,,,0.00,805,Wunderground v.1.15,2013-05-17 18:50:00,
2013-05-17 14:55:00,76.6,64.4,30.01,South,188,0.0,0.0,66,0.00,,,0.00,800,Wunderground v.1.15,2013-05-17 18:55:00,
2013-05-17 15:00:00,77.3,63.7,30.00,West,267,0.0,0.0,63,0.00,,,0.00,754,Wunderground v.1.15,2013-05-17 19:00:00,
2013-05-17 15:05:00,77.9,63.4,30.00,SSE,163,1.0,3.0,61,0.00,,,0.00,937,Wunderground v.1.15,2013-05-17 19:05:00,
2013-05-17 15:15:00,78.0,61.5,30.00,SSW,211,1.0,1.0,57,0.00,,,0.00,573,Wunderground v.1.15,2013-05-17 19:15:00,
2013-05-17 15:20:00,77.7,62.2,30.00,ESE,112,1.0,1.0,59,0.00,,,0.00,185,Wunderground v.1.15,2013-05-17 19:20:00,
2013-05-17 15:25:00,77.8,63.3,30.00,SSE,165,1.0,2.0,61,0.00,,,0.00,640,Wunderground v.1.15,2013-05-17 19:25:00,
2013-05-17 15:30:00,77.6,62.1,29.99,East,99,1.0,6.0,59,0.00,,,0.00,445,Wunderground v.1.15,2013-05-17 19:30:00,
2013-05-17 15:40:00,76.8,60.9,29.99,SE,137,2.0,3.0,58,0.00,,,0.00,132,Wunderground v.1.15,2013-05-17 19:40:00,
2013-05-17 15:50:00,76.3,60.9,29.99,SSE,163,1.0,1.0,59,0.00,,,0.00,304,Wunderground v.1.15,2013-05-17 19:50:00,
2013-05-17 15:55:00,76.2,60.8,29.99,SSE,163,0.0,1.0,59,0.00,,,0.00,193,Wunderground v.1.15,2013-05-17 19:55:00,
2013-05-17 16:00:00,76.3,61.4,29.99,South,190,0.0,0.0,60,0.00,,,0.00,197,Wunderground v.1.15,2013-05-17 20:00:00,
2013-05-17 16:05:00,76.3,60.9,29.99,South,190,0.0,0.0,59,0.00,,,0.00,336,Wunderground v.1.15,2013-05-17 20:05:00,
2013-05-17 16:15:00,76.7,62.2,29.98,SSE,168,0.0,0.0,61,0.00,,,0.00,299,Wunderground v.1.15,2013-05-17 20:15:00,
2013-05-17 16:25:00,76.9,60.5,29.98,South,171,0.0,0.0,57,0.00,,,0.00,197,Wunderground v.1.15,2013-05-17 20:25:00,
2013-05-17 16:30:00,77.0,60.6,29.98,South,171,0.0,0.0,57,0.00,,,0.00,188,Wunderground v.1.15,2013-05-17 20:30:00,
2013-05-17 16:35:00,77.3,61.9,29.98,South,171,0.0,0.0,59,0.00,,,0.00,183,Wunderground v.1.15,2013-05-17 20:35:00,
2013-05-17 16:40:00,77.4,61.9,29.98,South,171,0.0,0.0,59,0.00,,,0.00,172,Wunderground v.1.15,2013-05-17 20:40:00,
2013-05-17 16:45:00,77.3,60.9,29.98,SW,231,0.0,0.0,57,0.00,,,0.00,151,Wunderground v.1.15,2013-05-17 20:45:00,
2013-05-17 16:50:00,77.2,60.8,29.98,WNW,287,0.0,0.0,57,0.00,,,0.00,135,Wunderground v.1.15,2013-05-17 20:50:00,
2013-05-17 17:00:00,76.9,60.5,29.98,WSW,254,0.0,0.0,57,0.00,,,0.00,111,Wunderground v.1.15,2013-05-17 21:00:00,
2013-05-17 17:05:00,76.7,60.3,29.98,NW,318,0.0,0.0,57,0.00,,,0.00,120,Wunderground v.1.15,2013-05-17 21:05:00,
2013-05-17 17:15:00,76.6,60.7,29.98,South,176,0.0,1.0,58,0.00,,,0.00,144,Wunderground v.1.15,2013-05-17 21:15:00,
2013-05-17 17:20:00,76.6,61.2,29.98,South,176,0.0,0.0,59,0.00,,,0.00,118,Wunderground v.1.15,2013-05-17 21:20:00,
2013-05-17 17:25:00,76.7,60.8,29.98,South,179,0.0,1.0,58,0.00,,,0.00,113,Wunderground v.1.15,2013-05-17 21:25:00,
2013-05-17 17:35:00,76.3,59.4,29.98,SW,219,0.0,0.0,56,0.00,,,0.00,137,Wunderground v.1.15,2013-05-17 21:35:00,
2013-05-17 17:40:00,76.3,60.9,29.98,SW,219,0.0,0.0,59,0.00,,,0.00,151,Wunderground v.1.15,2013-05-17 21:40:00,
2013-05-17 17:45:00,76.3,59.4,29.98,SW,219,0.0,0.0,56,0.00,,,0.00,137,Wunderground v.1.15,2013-05-17 21:45:00,
2013-05-17 17:50:00,76.4,60.0,29.98,ESE,111,0.0,0.0,57,0.00,,,0.00,70,Wunderground v.1.15,2013-05-17 21:50:00,
2013-05-17 17:55:00,76.3,60.4,29.98,SSW,208,0.0,0.0,58,0.00,,,0.00,58,Wunderground v.1.15,2013-05-17 21:55:00,
2013-05-17 18:00:00,76.0,60.6,29.98,SSW,211,0.0,0.0,59,0.00,,,0.00,60,Wunderground v.1.15,2013-05-17 22:00:00,
2013-05-17 18:05:00,75.6,60.3,29.98,SSW,211,0.0,0.0,59,0.00,,,0.00,88,Wunderground v.1.15,2013-05-17 22:05:00,
2013-05-17 18:15:00,75.3,60.0,29.98,South,190,0.0,0.0,59,0.00,,,0.00,62,Wunderground v.1.15,2013-05-17 22:15:00,
2013-05-17 18:20:00,75.2,59.9,29.98,South,190,0.0,0.0,59,0.00,,,0.00,58,Wunderground v.1.15,2013-05-17 22:20:00,
2013-05-17 18:25:00,75.2,60.4,29.98,South,190,0.0,0.0,60,0.00,,,0.00,51,Wunderground v.1.15,2013-05-17 22:25:00,
2013-05-17 18:30:00,75.1,61.2,29.98,South,190,0.0,0.0,62,0.00,,,0.00,49,Wunderground v.1.15,2013-05-17 22:30:00,
2013-05-17 18:35:00,75.0,61.1,29.98,WSW,254,0.0,0.0,62,0.00,,,0.00,46,Wunderground v.1.15,2013-05-17 22:35:00,
2013-05-17 18:40:00,74.7,60.8,29.98,WSW,256,0.0,0.0,62,0.00,,,0.00,39,Wunderground v.1.15,2013-05-17 22:40:00,
2013-05-17 18:50:00,74.3,61.3,29.98,WSW,257,0.0,0.0,64,0.00,,,0.00,44,Wunderground v.1.15,2013-05-17 22:50:00,
2013-05-17 18:55:00,74.0,61.5,29.98,West,265,0.0,0.0,65,0.00,,,0.00,39,Wunderground v.1.15,2013-05-17 22:55:00,
2013-05-17 19:00:00,73.8,61.3,29.98,West,265,0.0,0.0,65,0.00,,,0.00,35,Wunderground v.1.15,2013-05-17 23:00:00,
2013-05-17 19:05:00,73.5,60.1,29.98,West,264,0.0,0.0,63,0.00,,,0.00,32,Wunderground v.1.15,2013-05-17 23:05:00,
2013-05-17 19:15:00,73.0,60.1,29.98,West,264,0.0,0.0,64,0.00,,,0.00,33,Wunderground v.1.15,2013-05-17 23:15:00,
2013-05-17 19:25:00,72.4,60.4,29.98,West,264,0.0,0.0,66,0.00,,,0.00,30,Wunderground v.1.15,2013-05-17 23:25:00,
2013-05-17 19:30:00,72.0,60.0,29.98,West,263,0.0,0.0,66,0.00,,,0.00,26,Wunderground v.1.15,2013-05-17 23:30:00,
2013-05-17 19:35:00,71.7,59.7,29.98,West,263,0.0,0.0,66,0.00,,,0.00,23,Wunderground v.1.15,2013-05-17 23:35:00,
2013-05-17 19:40:00,71.5,59.1,29.98,West,263,0.0,0.0,65,0.00,,,0.00,19,Wunderground v.1.15,2013-05-17 23:40:00,
2013-05-17 19:45:00,71.3,59.4,29.99,West,263,0.0,0.0,66,0.00,,,0.00,18,Wunderground v.1.15,2013-05-17 23:45:00,
2013-05-17 19:50:00,71.1,59.2,29.99,West,263,0.0,0.0,66,0.00,,,0.00,16,Wunderground v.1.15,2013-05-17 23:50:00,
2013-05-17 19:55:00,70.9,59.0,29.99,West,263,0.0,0.0,66,0.00,,,0.00,14,Wunderground v.1.15,2013-05-17 23:55:00,
2013-05-17 20:05:00,70.5,59.0,29.99,West,262,0.0,0.0,67,0.00,,,0.00,9,Wunderground v.1.15,2013-05-18 00:05:00,
2013-05-17 20:15:00,70.1,58.6,29.99,West,262,0.0,0.0,67,0.00,,,0.00,5,Wunderground v.1.15,2013-05-18 00:15:00,
2013-05-17 20:20:00,70.0,59.4,29.99,West,261,0.0,0.0,69,0.00,,,0.00,0,Wunderground v.1.15,2013-05-18 00:20:00,
2013-05-17 20:25:00,69.9,59.3,29.99,West,261,0.0,0.0,69,0.00,,,0.00,0,Wunderground v.1.15,2013-05-18 00:25:00,
2013-05-17 20:35:00,69.3,59.1,29.99,West,261,0.0,0.0,70,0.00,,,0.00,0,Wunderground v.1.15,2013-05-18 00:35:00,
2013-05-17 20:40:00,69.0,59.2,30.00,West,261,0.0,0.0,71,0.00,,,0.00,0,Wunderground v.1.15,2013-05-18 00:40:00,
2013-05-17 20:45:00,68.8,59.4,30.00,West,261,0.0,0.0,72,0.00,,,0.00,0,Wunderground v.1.15,2013-05-18 00:45:00,
2013-05-17 20:50:00,68.5,59.9,30.00,West,261,0.0,0.0,74,0.00,,,0.00,0,Wunderground v.1.15,2013-05-18 00:50:00,
2013-05-17 20:55:00,68.1,59.5,30.00,West,261,0.0,0.0,74,0.00,,,0.00,0,Wunderground v.1.15,2013-05-18 00:55:00,
2013-05-17 21:00:00,67.8,60.0,30.00,West,261,0.0,0.0,76,0.00,,,0.00,0,Wunderground v.1.15,2013-05-18 01:00:00,
2013-05-17 21:05:00,67.4,59.6,30.00,West,261,0.0,0.0,76,0.00,,,0.00,0,Wunderground v.1.15,2013-05-18 01:05:00,
2013-05-17 21:15:00,66.9,59.1,30.00,West,261,0.0,0.0,76,0.00,,,0.00,0,Wunderground v.1.15,2013-05-18 01:15:00,
2013-05-17 21:20:00,66.8,60.1,30.00,West,261,0.0,0.0,79,0.00,,,0.00,0,Wunderground v.1.15,2013-05-18 01:20:00,
2013-05-17 21:25:00,66.7,60.3,30.00,West,261,0.0,0.0,80,0.00,,,0.00,0,Wunderground v.1.15,2013-05-18 01:25:00,
2013-05-17 21:30:00,66.5,60.8,30.00,West,261,0.0,0.0,82,0.00,,,0.00,0,Wunderground v.1.15,2013-05-18 01:30:00,
2013-05-17 21:35:00,66.3,60.6,30.00,West,261,0.0,0.0,82,0.00,,,0.00,0,Wunderground v.1.15,2013-05-18 01:35:00,
2013-05-17 21:45:00,65.9,60.6,30.00,West,261,0.0,0.0,83,0.00,,,0.00,0,Wunderground v.1.15,2013-05-18 01:45:00,
2013-05-17 21:50:00,65.8,60.5,30.00,West,261,0.0,0.0,83,0.00,,,0.00,0,Wunderground v.1.15,2013-05-18 01:50:00,
2013-05-17 21:55:00,65.8,60.8,30.00,West,261,0.0,0.0,84,0.00,,,0.00,0,Wunderground v.1.15,2013-05-18 01:55:00,
2013-05-17 22:00:00,65.7,60.7,30.00,West,261,0.0,0.0,84,0.00,,,0.00,0,Wunderground v.1.15,2013-05-18 02:00:00,
2013-05-17 22:05:00,65.6,60.6,30.01,West,261,0.0,0.0,84,0.00,,,0.00,0,Wunderground v.1.15,2013-05-18 02:05:00,
2013-05-17 22:15:00,65.2,60.6,30.01,West,261,0.0,0.0,85,0.00,,,0.00,0,Wunderground v.1.15,2013-05-18 02:15:00,
2013-05-17 22:20:00,64.8,59.9,30.01,West,261,0.0,0.0,84,0.00,,,0.00,0,Wunderground v.1.15,2013-05-18 02:20:00,
2013-05-17 22:25:00,64.6,60.0,30.01,West,261,0.0,0.0,85,0.00,,,0.00,0,Wunderground v.1.15,2013-05-18 02:25:00,
2013-05-17 22:30:00,64.3,59.7,30.02,West,261,0.0,0.0,85,0.00,,,0.00,0,Wunderground v.1.15,2013-05-18 02:30:00,
2013-05-17 22:35:00,64.2,59.9,30.02,West,261,0.0,0.0,86,0.00,,,0.00,0,Wunderground v.1.15,2013-05-18 02:35:00,
2013-05-17 22:40:00,64.1,60.2,30.02,West,261,0.0,0.0,87,0.00,,,0.00,0,Wunderground v.1.15,2013-05-18 02:40:00,
2013-05-17 22:45:00,64.0,60.1,30.02,West,261,0.0,0.0,87,0.00,,,0.00,0,Wunderground v.1.15,2013-05-18 02:45:00,
2013-05-17 22:50:00,64.0,60.1,30.02,West,265,0.0,0.0,87,0.00,,,0.00,0,Wunderground v.1.15,2013-05-18 02:50:00,
2013-05-17 23:00:00,63.9,60.3,30.02,West,265,0.0,0.0,88,0.00,,,0.01,0,Wunderground v.1.15,2013-05-18 03:00:00,
2013-05-17 23:05:00,63.8,60.5,30.02,West,265,0.0,0.0,89,0.00,,,0.01,0,Wunderground v.1.15,2013-05-18 03:05:00,
2013-05-17 23:15:00,63.7,60.7,30.02,West,265,0.0,0.0,90,0.00,,,0.01,0,Wunderground v.1.15,2013-05-18 03:15:00,
2013-05-17 23:20:00,63.6,60.9,30.02,West,265,0.0,0.0,91,0.00,,,0.02,0,Wunderground v.1.15,2013-05-18 03:20:00,
2013-05-17 23:25:00,63.5,60.8,30.02,West,265,0.0,0.0,91,0.00,,,0.02,0,Wunderground v.1.15,2013-05-18 03:25:00,
2013-05-17 23:35:00,63.3,60.6,30.02,West,265,0.0,0.0,91,0.00,,,0.02,0,Wunderground v.1.15,2013-05-18 03:35:00,
2013-05-17 23:40:00,63.2,60.8,30.03,West,265,0.0,0.0,92,0.00,,,0.02,0,Wunderground v.1.15,2013-05-18 03:40:00,
2013-05-17 23:45:00,63.1,60.7,30.03,West,265,0.0,0.0,92,0.00,,,0.02,0,Wunderground v.1.15,2013-05-18 03:45:00,
2013-05-17 23:50:00,63.0,60.6,30.03,West,265,0.0,0.0,92,0.00,,,0.02,0,Wunderground v.1.15,2013-05-18 03:50:00,
2013-05-17 23:55:00,63.0,60.9,30.03,West,265,0.0,0.0,93,0.00,,,0.02,0,Wunderground v.1.15,2013-05-18 03:55:00,